Wind_Speed
15 15 16 16 16 16 17 17 18 18 19 19 20 20 21 21 21 20 19 17 14 13 12 11 10 11 12 12 13 13 14 11 7 5 8 6 6 7 6 7 7 7 7 8 9 8 10 12 17 19 15 9 3 4 2 4 2 1 1 1 1 2 1 3 4 3 1 0 2 2 3 1 1 2 3 4 6 2 3 5 9 11 12 16 22 27 25 24
15 15 15 16 16 17 17 18 19 19 20 20 21 22 22 23 22 20 18 17 15 13 11 10 9 10 10 11 11 11 12 10 7 9 11 10 11 11 9 9 10 8 8 9 11 11 10 8 9 11 8 4 5 4 3 4 4 2 2 2 2 3 1 1 2 3 2 1 1 3 3 5 1 1 2 2 4 4 3 7 12 14 15 18 22 25 23 23
15 15 15 15 16 16 17 18 18 19 20 21 22 22 23 24 23 20 18 17 15 12 10 9 9 9 9 10 9 9 11 8 5 6 8 9 11 11 9 9 9 8 10 10 10 11 12 13 12 7 4 3 3 5 5 6 5 4 3 2 3 4 2 3 3 4 4 2 2 1 5 5 3 2 2 1 3 2 6 8 11 15 15 15 16 19 21 21
16 15 15 15 15 16 17 18 18 19 20 21 22 23 24 24 23 20 18 17 15 12 10 9 8 8 8 8 7 8 8 5 1 2 4 5 7 7 7 8 8 8 10 10 8 11 16 17 14 7 4 5 2 7 7 9 6 4 4 3 4 6 2 4 5 3 1 1 3 1 4 3 5 3 2 3 3 1 4 7 11 14 14 15 14 15 18 17
16 16 15 15 15 16 17 18 18 19 20 21 22 23 24 24 22 20 18 16 14 11 9 8 8 7 7 6 4 7 6 2 2 2 2 3 4 5 6 7 8 9 9 8 8 12 16 15 9 6 4 5 4 6 7 11 8 1 3 5 7 7 2 3 5 1 2 3 4 2 3 2 5 3 2 3 3 1 2 6 12 13 13 14 13 13 15 15
17 17 16 15 15 16 17 17 18 19 20 20 21 22 24 24 21 19 18 16 14 11 8 7 7 6 6 5 4 5 3 1 2 2 1 2 3 3 5 6 8 8 7 6 10 12 12 11 7 5 4 5 7 7 4 10 12 3 3 8 9 8 4 4 4 3 3 4 3 2 2 3 4 2 2 2 1 4 4 2 11 14 14 15 14 12 13 12
18 17 17 16 16 16 16 17 18 19 19 20 21 22 23 23 20 18 18 16 14 11 8 7 6 6 6 4 3 2 2 2 1 2 2 2 1 1 4 6 7 8 6 7 10 10 9 9 7 5 5 6 8 8 3 9 14 8 5 9 10 7 7 6 5 4 4 4 2 1 2 2 3 2 3 3 5 4 4 4 8 14 15 16 13 12 12 12
19 19 18 18 17 16 16 17 18 18 19 20 21 22 22 22 19 17 17 16 14 12 9 8 6 6 6 4 1 2 2 3 1 2 2 1 2 2 5 6 7 7 8 11 12 10 8 7 7 5 5 6 6 5 3 4 10 11 9 10 10 8 7 6 5 4 4 4 2 1 2 2 2 2 4 4 7 3 3 5 4 12 13 14 12 12 12 11
20 20 19 19 18 17 17 17 18 18 19 19 21 22 22 22 19 16 16 15 14 13 9 8 7 6 6 3 2 4 0 6 5 2 2 3 4 2 4 6 6 9 11 15 16 13 8 5 7 6 5 6 6 7 5 1 3 8 13 13 11 8 4 4 4 5 3 1 2 1 1 1 2 2 3 6 5 5 3 6 2 11 12 11 11 11 11 10
21 21 20 20 20 19 18 18 18 18 19 19 20 22 22 22 19 16 15 14 14 13 9 7 6 6 5 2 3 2 1 7 6 3 4 4 3 0 3 5 7 12 14 14 15 12 6 5 8 7 6 5 5 8 6 1 4 8 16 17 13 9 5 3 2 3 3 1 0 1 1 1 3 2 3 6 5 3 4 8 4 11 12 10 10 9 9 9
21 21 21 21 21 20 19 18 18 18 19 19 20 21 22 22 20 16 15 13 13 13 9 6 6 5 3 2 2 2 4 3 7 7 5 4 5 6 8 10 10 13 13 12 13 11 7 9 9 5 4 5 8 9 5 3 3 11 18 16 13 12 7 4 1 1 3 0 3 3 1 1 0 1 4 6 5 1 5 7 5 7 10 10 9 8 7 6
21 21 22 22 22 21 20 19 19 19 19 19 20 21 22 23 20 17 15 11 12 12 8 6 6 5 3 3 4 4 8 5 7 9 6 6 8 10 10 10 10 10 11 9 11 13 10 10 9 5 4 5 8 7 6 9 4 9 15 13 11 12 10 5 4 2 4 2 4 4 1 3 3 3 6 6 2 4 5 4 4 2 5 9 8 7 6 6
21 21 22 22 22 22 21 20 19 19 20 19 20 21 22 23 21 18 15 9 10 12 7 6 6 5 3 3 3 3 6 2 4 3 4 6 9 11 9 7 8 9 11 10 13 16 15 15 10 4 5 6 5 6 8 10 5 2 8 12 9 7 8 9 8 6 5 3 6 5 1 4 4 6 7 4 2 6 4 3 5 6 3 6 8 6 5 7
22 22 22 22 22 23 22 21 20 20 20 20 20 21 22 23 21 19 15 9 9 10 6 4 4 4 1 4 3 4 4 1 3 4 5 8 10 11 11 8 8 9 10 11 13 14 13 14 11 5 5 5 5 7 8 7 2 2 5 9 7 4 5 9 9 10 4 2 6 4 1 4 4 5 5 1 3 5 2 1 1 4 4 1 6 7 5 6
22 22 23 23 23 23 22 21 21 20 21 21 21 21 23 23 22 19 15 10 7 8 8 6 3 1 2 6 5 3 4 5 7 9 7 10 11 8 10 10 8 9 9 11 11 10 12 12 7 4 4 6 7 7 5 5 3 4 5 4 4 4 4 6 7 10 6 4 8 5 2 3 5 5 4 2 3 4 4 3 1 2 3 4 0 6 6 6
23 23 23 23 23 23 23 22 21 21 21 22 22 22 23 23 24 20 15 11 8 7 7 5 3 4 3 3 5 5 7 8 5 6 5 6 10 6 5 7 5 7 8 9 10 9 12 10 4 4 5 5 6 5 5 4 4 3 5 4 4 6 4 4 5 7 7 7 7 6 2 1 4 5 5 3 3 3 4 4 2 0 2 4 4 3 6 6
24 24 24 24 23 23 23 22 22 22 22 23 23 23 23 24 24 20 13 9 7 7 5 4 3 3 4 3 4 4 6 5 1 4 5 5 8 8 5 5 4 8 8 8 10 9 9 6 3 3 3 4 5 4 3 4 5 4 5 5 3 7 8 5 4 5 8 8 5 6 4 3 4 6 6 4 5 4 4 5 3 2 1 1 4 4 5 6
25 25 25 25 24 23 22 22 22 22 23 23 23 24 25 24 22 16 8 4 3 3 5 6 4 2 4 7 5 1 3 2 3 6 6 5 6 8 9 7 4 6 6 5 8 7 4 3 3 3 4 4 4 4 3 5 6 3 1 3 3 7 9 8 5 7 11 8 5 6 4 4 6 7 6 5 6 5 4 5 4 3 2 1 4 4 4 6
26 26 27 26 25 23 22 22 21 22 24 23 23 24 22 16 13 9 2 2 0 2 4 3 5 2 2 4 4 3 5 3 3 7 9 6 4 6 9 8 5 4 4 3 5 6 4 2 3 3 4 5 7 8 6 8 7 3 3 1 3 5 6 7 7 9 12 7 5 8 5 5 7 7 7 6 6 6 5 5 4 3 2 2 3 5 4 6
27 27 28 27 26 24 22 21 20 22 23 23 24 20 12 6 4 3 1 3 5 7 9 7 7 4 2 1 3 6 4 1 7 10 10 7 4 6 8 7 5 4 5 5 4 6 5 3 4 5 8 10 11 9 4 6 4 4 5 4 1 5 6 7 7 9 11 6 5 9 6 6 7 8 8 7 6 6 5 5 4 4 3 2 3 5 4 4
28 28 28 28 27 25 22 21 19 20 21 23 21 11 4 5 4 3 3 5 9 12 15 11 4 1 2 3 3 3 5 6 10 6 9 7 6 6 4 6 6 3 7 9 6 5 5 4 7 8 11 10 4 1 4 7 6 6 4 5 5 2 6 7 6 9 10 5 5 8 7 7 8 7 7 7 7 6 6 6 4 5 4 3 4 5 5 3
29 28 29 29 27 26 23 20 18 19 20 20 13 3 5 6 5 7 7 6 11 12 13 9 5 4 3 1 4 2 4 7 6 5 8 5 5 4 4 6 6 6 8 5 2 4 4 5 9 6 3 3 6 7 6 6 6 6 4 4 5 1 6 4 5 9 8 4 5 8 7 6 7 7 7 7 7 5 5 6 5 5 5 4 5 4 5 4
29 29 29 29 28 27 24 20 17 17 19 16 10 7 10 9 10 13 9 4 8 12 11 7 6 6 5 5 5 3 3 4 4 6 6 3 4 5 7 5 5 7 5 4 3 4 4 6 7 2 7 7 6 7 7 5 3 2 3 3 4 4 6 4 5 9 8 4 5 6 5 4 4 5 6 6 5 4 5 6 5 5 5 5 4 4 5 5
29 30 29 29 29 27 24 22 16 14 16 16 17 17 15 11 12 14 8 3 5 9 7 4 4 2 2 3 5 4 5 2 3 5 7 4 5 5 6 6 5 7 4 6 5 4 5 3 2 6 8 7 5 3 4 4 3 4 6 6 6 6 6 8 8 8 6 4 3 8 6 1 3 4 4 5 4 4 5 5 5 5 4 3 2 4 6 5
30 30 30 30 29 27 26 19 9 10 16 16 20 16 10 8 12 13 7 2 4 5 1 2 1 0 3 3 5 4 3 1 2 3 7 4 3 3 6 5 3 4 3 1 1 3 4 1 6 5 5 5 5 4 4 4 3 4 5 5 3 4 2 10 13 7 4 4 4 6 3 2 4 5 4 4 4 5 4 5 6 5 4 3 2 5 6 6
30 30 30 30 30 30 23 8 6 16 17 12 13 12 8 8 13 12 4 1 4 2 4 4 3 2 3 3 5 1 2 1 3 4 3 1 0 2 5 4 2 3 4 2 1 2 4 3 4 1 1 2 5 5 6 5 4 4 3 6 7 8 8 5 11 5 3 4 5 6 4 2 3 4 5 5 6 6 5 6 6 5 4 4 4 4 5 6
30 30 30 28 29 30 16 5 13 19 10 9 18 20 14 14 16 11 2 1 3 2 3 4 4 4 5 3 3 0 2 1 4 4 3 2 1 4 5 5 4 3 2 1 1 3 3 1 3 3 1 3 4 4 4 2 2 4 5 10 10 9 10 4 2 1 3 1 0 3 3 3 1 2 6 7 7 7 6 6 6 6 6 5 4 4 5 7
30 30 30 27 28 25 13 11 16 13 9 13 19 19 17 18 16 7 2 1 1 0 1 2 3 4 5 5 3 4 2 3 2 2 6 7 3 3 3 6 7 4 3 3 2 4 1 4 3 2 1 3 1 3 5 6 2 4 8 8 5 6 8 7 4 3 4 4 2 4 3 2 2 1 3 4 5 7 7 8 7 7 7 6 6 5 6 8
32 31 30 28 26 18 11 12 12 9 14 16 15 17 19 19 12 2 1 3 1 1 1 2 3 3 3 3 3 8 4 5 3 3 6 7 5 2 2 6 7 5 4 1 4 5 1 1 1 3 3 2 3 5 5 5 3 5 8 5 1 4 6 5 4 4 3 3 3 6 3 2 1 0 2 1 3 5 6 6 6 7 7 6 6 6 7 7
32 31 30 29 22 12 11 15 13 10 17 14 12 16 17 13 5 0 3 2 1 2 2 2 2 4 6 4 5 8 5 5 3 3 5 4 5 6 4 6 6 4 4 4 6 7 4 4 3 2 2 3 4 4 2 3 4 3 5 5 2 4 5 4 4 2 1 3 5 6 7 4 2 2 3 3 3 5 5 4 5 7 7 8 7 7 7 7
33 31 31 29 21 12 9 10 8 9 13 12 13 14 11 5 0 1 2 1 1 2 2 3 4 6 8 7 5 7 7 5 4 4 5 4 5 6 4 4 3 3 5 4 6 9 6 5 4 4 2 3 2 3 5 6 7 5 4 3 1 3 3 2 1 3 2 5 6 6 7 3 2 2 4 3 2 5 6 5 7 8 8 9 8 7 8 7
34 31 29 26 21 16 11 10 8 10 8 11 13 8 5 1 2 3 2 3 2 2 2 3 6 4 5 4 4 6 4 1 4 3 3 3 4 5 5 4 2 0 4 5 5 7 6 5 5 8 4 2 1 3 4 3 3 2 2 1 3 3 4 2 1 1 2 5 4 1 4 4 2 1 2 2 1 2 2 3 6 9 9 8 8 8 8 7
35 32 26 20 17 17 15 13 10 7 8 12 9 4 1 1 3 5 5 5 2 4 2 2 6 2 2 4 5 3 3 1 3 2 1 2 4 6 9 5 0 2 2 6 5 1 2 4 6 7 4 1 1 1 2 3 4 3 3 4 3 2 3 2 2 2 1 4 5 5 10 4 2 1 2 3 2 3 3 2 0 5 8 9 8 8 7 7
36 31 23 16 17 16 15 13 7 3 7 9 5 1 2 4 4 6 8 5 2 4 2 2 2 3 2 3 5 1 2 4 4 1 1 3 4 3 5 4 4 2 1 4 5 3 4 2 4 4 3 4 1 2 2 3 5 3 3 4 3 1 2 1 2 3 3 5 7 4 5 2 2 2 1 2 3 2 2 3 4 3 4 7 8 8 8 8
35 30 23 19 20 15 10 11 8 4 5 5 2 2 4 4 3 5 6 3 2 2 3 4 1 3 3 4 3 1 1 3 4 3 3 4 3 2 2 5 6 5 4 4 3 4 6 4 2 3 6 5 4 4 2 3 4 4 3 4 1 1 1 0 1 3 3 4 4 2 2 1 4 5 1 1 2 1 2 3 4 4 3 3 6 8 9 8
35 31 21 16 18 12 6 8 8 6 5 3 1 4 5 5 6 5 3 3 2 3 3 3 2 3 3 4 5 5 2 3 4 2 2 5 3 1 2 3 5 5 5 3 3 4 4 5 8 2 5 6 7 2 2 4 2 3 3 2 3 2 2 3 2 4 4 3 2 2 4 1 3 4 3 2 1 2 3 2 3 4 6 4 2 5 7 8
35 29 16 15 18 14 8 7 9 9 5 2 2 5 5 6 9 7 8 8 2 2 3 2 0 2 4 2 4 6 3 1 3 2 2 4 2 1 4 4 4 5 4 1 1 3 3 4 11 5 3 5 6 3 1 3 3 2 2 2 4 3 5 3 1 3 4 2 3 4 6 1 1 1 5 4 3 4 3 2 3 4 6 6 5 4 3 4
30 21 13 17 16 13 12 10 11 9 3 2 4 6 5 7 10 10 11 11 5 2 2 2 1 2 4 3 2 7 6 2 3 2 1 2 2 4 3 4 3 3 1 0 1 2 2 3 8 3 4 2 3 4 2 0 3 4 3 3 1 3 2 1 1 1 3 3 3 3 7 2 3 2 5 7 9 10 7 4 3 3 4 5 5 6 5 3
19 8 7 11 7 13 15 14 11 6 2 3 4 4 5 8 11 12 12 10 6 4 3 3 3 3 5 3 0 3 3 2 2 1 1 2 1 3 1 1 4 4 2 1 2 3 2 0 4 4 5 3 2 3 2 1 2 1 3 2 3 3 2 2 1 2 1 2 3 1 4 2 2 0 2 6 9 13 13 9 7 5 2 4 5 5 6 4
9 3 7 6 13 18 16 13 8 3 3 4 4 5 6 8 10 12 14 11 4 1 1 4 5 3 5 5 2 1 1 2 1 1 1 2 3 1 3 1 4 5 6 2 2 3 3 3 2 7 9 5 3 3 2 3 3 4 5 5 3 3 3 3 1 1 2 2 1 2 1 2 4 3 1 1 3 7 10 9 9 7 5 5 6 5 5 5
4 3 5 7 19 18 13 8 4 2 4 4 5 8 9 9 11 14 12 5 2 0 3 6 6 4 6 7 4 2 1 2 2 1 1 2 3 1 4 4 5 6 6 5 4 4 3 3 2 4 7 4 4 6 3 5 3 2 4 3 2 3 3 3 2 2 1 1 1 1 1 4 3 3 3 3 3 4 4 4 5 5 6 6 7 8 7 6
3 3 5 6 18 16 8 4 4 3 4 5 6 9 10 9 11 13 10 1 5 2 5 5 5 4 4 4 5 4 1 2 3 1 0 1 4 4 3 7 7 5 3 3 4 4 2 1 3 3 5 4 6 9 5 4 5 5 5 3 3 3 4 4 2 2 1 2 3 1 2 3 2 3 3 3 3 3 0 3 4 4 3 2 5 9 10 9
1 6 17 12 13 15 4 3 4 3 4 7 9 12 11 10 10 10 9 4 2 3 3 4 4 4 2 2 5 4 3 1 5 3 4 7 7 6 8 8 3 2 3 3 4 4 3 1 3 4 4 5 7 7 6 7 4 6 4 3 4 4 3 4 3 2 1 3 3 1 1 3 1 3 3 3 3 2 2 3 4 4 4 2 2 3 6 10
4 4 13 15 10 12 5 4 4 4 5 8 11 13 12 11 11 10 8 6 3 2 2 4 4 4 3 3 5 4 2 2 4 3 4 6 4 2 5 7 4 1 3 2 1 2 2 1 3 4 4 6 7 6 8 9 5 2 1 1 2 5 5 3 2 3 1 2 3 1 1 2 2 3 4 3 1 3 2 3 5 4 4 4 4 1 0 4
6 3 4 10 11 9 4 4 4 5 6 9 11 12 11 10 10 10 6 5 6 4 3 4 4 4 5 4 3 4 2 2 1 3 3 4 3 5 6 7 4 4 5 4 2 2 1 0 3 2 2 3 3 4 4 3 3 2 1 4 4 2 6 5 3 2 1 2 4 1 1 1 2 3 3 3 1 2 1 3 5 4 4 5 4 4 2 2
4 2 2 5 6 6 4 5 6 6 7 8 8 9 11 10 9 9 9 6 8 7 4 4 5 5 5 5 3 3 4 2 2 1 2 1 1 2 7 8 6 6 7 4 2 2 1 1 1 2 3 3 5 7 7 6 5 5 0 5 6 3 4 5 4 3 4 1 3 1 1 2 2 2 2 3 2 2 2 4 5 5 5 6 4 4 4 3
2 3 3 3 2 3 4 5 6 7 8 7 5 6 11 12 10 6 8 7 6 7 6 5 7 6 6 6 5 5 5 4 2 2 1 1 1 2 6 6 6 9 7 4 3 3 2 1 3 6 6 7 9 10 10 10 9 7 2 5 3 4 3 1 1 3 5 4 1 2 2 3 3 2 3 3 3 4 4 5 6 5 5 6 5 5 6 6
3 4 5 7 4 3 3 5 9 9 10 9 5 7 12 12 10 6 4 6 5 5 4 4 6 7 7 7 5 3 4 4 4 4 3 2 2 3 5 4 6 10 7 5 6 5 2 2 3 3 4 6 8 9 10 8 7 7 5 2 2 2 3 5 4 2 7 4 4 4 4 5 2 1 3 3 3 3 4 5 5 6 5 4 5 6 7 8
3 4 6 9 7 6 7 10 13 12 10 8 5 7 11 12 11 9 5 4 5 6 4 3 6 7 9 9 5 2 0 3 4 4 2 0 3 2 2 3 5 8 7 4 4 5 3 2 2 2 4 7 8 9 9 8 7 8 6 1 1 1 3 6 6 3 7 4 2 4 7 6 2 2 4 3 3 2 2 4 4 5 6 5 5 6 7 7
4 4 5 7 7 7 7 9 11 10 8 7 6 6 8 10 11 10 8 6 4 5 7 8 8 9 9 8 4 3 4 3 3 3 1 1 3 3 0 2 3 4 5 2 3 4 3 3 3 2 2 5 7 8 8 8 8 7 5 4 7 6 4 5 6 3 5 4 4 6 6 5 3 3 4 2 1 2 1 4 4 5 6 6 5 6 6 6
9 9 8 5 5 6 7 7 7 7 6 6 6 6 7 9 9 8 8 8 7 5 6 8 9 8 8 9 7 7 8 7 7 6 5 5 5 2 1 3 5 4 3 2 2 3 3 2 2 2 1 4 5 8 9 7 6 6 5 7 8 5 2 3 4 3 3 2 2 3 4 3 3 4 3 2 2 4 4 4 5 5 5 6 6 6 5 5
13 12 9 5 4 5 6 6 6 5 5 6 8 8 7 9 10 9 7 7 9 9 9 10 8 6 5 8 8 7 10 10 7 6 7 6 7 6 5 7 7 4 1 1 2 3 2 1 2 1 2 3 3 7 10 10 7 5 3 3 5 3 3 3 4 5 7 4 2 3 3 3 4 5 3 2 3 5 4 3 4 5 5 6 5 5 5 5
Wind_Direction
3 0 357 355 353 350 348 345 344 342 341 340 340 340 339 339 336 333 330 327 326 320 316 316 318 322 323 328 331 330 329 326 327 298 253 247 270 284 289 273 281 271 261 251 227 230 246 235 224 228 231 222 127 92 116 110 135 73 101 114 94 225 192 180 169 144 116 64 191 257 325 309 200 261 308 336 340 339 163 144 128 131 130 125 124 133 143 142
2 359 355 352 349 346 344 341 340 339 339 339 339 339 340 340 338 337 333 330 329 324 321 321 323 327 329 335 336 336 340 336 318 286 256 259 275 273 269 269 274 264 247 230 225 233 244 255 239 229 227 195 117 126 163 154 162 166 160 144 196 209 169 183 167 159 153 191 184 38 322 271 234 216 314 9 298 299 84 96 102 105 107 115 125 137 144 140
1 358 354 350 346 343 340 338 337 336 336 338 339 340 340 341 340 339 336 332 329 327 327 324 328 332 338 342 341 351 350 334 299 267 248 250 252 251 253 256 262 255 237 223 229 251 271 293 296 284 264 239 137 132 163 162 175 215 180 155 184 164 153 200 217 207 199 195 116 49 276 280 353 357 349 353 286 321 89 98 105 109 118 126 130 139 143 141
360 356 352 348 345 340 337 335 334 334 335 337 338 340 341 342 342 339 337 334 329 331 331 328 336 336 345 352 357 7 347 316 289 185 201 240 250 247 247 246 248 241 230 227 242 270 282 289 291 286 273 271 173 140 169 170 177 233 190 164 142 142 155 188 213 232 249 35 114 235 289 332 336 359 34 3 3 40 108 118 124 128 133 133 135 144 146 146
358 356 352 348 345 340 336 334 332 333 334 336 338 340 342 343 343 340 339 337 333 335 335 335 339 336 350 1 19 16 353 343 111 154 191 283 275 251 242 240 238 231 222 233 261 273 275 273 270 267 253 267 236 170 176 174 174 242 157 128 122 144 144 153 177 134 34 71 89 308 340 353 310 348 25 27 64 242 205 137 135 134 134 136 143 148 149 153
358 356 353 349 345 341 336 333 331 332 333 335 337 340 344 344 342 341 341 342 342 340 339 342 342 340 350 3 38 30 2 15 139 168 348 329 284 250 219 221 225 219 209 234 264 267 269 259 243 250 239 245 245 228 192 166 171 182 126 122 127 149 129 112 126 70 43 82 88 328 2 343 323 342 341 26 193 248 284 162 135 131 136 139 147 155 158 158
358 358 355 351 347 343 337 333 331 331 332 334 335 340 344 344 342 341 341 342 344 342 340 346 348 348 352 17 40 18 238 262 189 122 5 355 324 223 189 202 208 200 208 246 259 258 260 252 232 240 249 248 246 237 214 162 164 156 129 131 132 126 98 83 73 64 58 79 115 301 4 325 328 336 333 316 253 252 325 331 126 134 140 143 156 167 161 158
359 359 356 353 349 344 338 333 331 331 332 332 334 338 343 344 342 340 338 337 341 341 341 351 358 357 2 27 12 282 223 205 160 81 41 49 96 151 168 179 189 197 227 247 253 260 264 267 253 244 253 261 272 271 257 171 152 138 133 131 117 96 78 89 92 71 64 85 121 312 317 268 274 313 318 274 266 297 334 323 135 145 144 150 168 165 158 164
359 358 357 355 350 346 339 334 331 330 330 331 333 336 342 344 341 337 334 331 335 337 341 356 2 356 1 16 282 290 243 161 154 83 87 90 84 105 164 174 196 218 238 251 254 260 264 282 278 280 303 287 293 298 293 310 153 135 130 122 104 101 91 97 104 77 69 90 96 320 253 273 312 322 289 245 261 311 314 315 231 159 153 161 170 160 160 167
358 358 357 354 350 346 340 335 331 329 329 329 332 334 339 342 339 335 330 324 329 334 342 355 0 360 1 345 277 286 172 160 152 100 96 102 101 113 230 212 221 229 241 258 260 262 262 279 289 303 311 305 309 288 291 316 193 140 122 120 111 123 117 83 112 108 101 7 28 194 192 300 343 13 275 252 254 297 354 333 296 165 159 162 165 159 158 161
355 355 355 353 350 346 341 336 331 328 327 327 330 332 335 339 337 330 327 321 323 332 341 349 355 3 355 297 272 281 313 250 175 148 141 171 193 221 246 240 233 234 247 263 263 264 265 280 299 320 304 330 331 297 314 352 186 128 117 117 117 121 104 92 198 167 116 72 227 176 132 249 302 127 254 267 257 72 45 334 298 164 157 157 162 155 150 164
352 352 353 351 349 346 342 336 331 327 325 324 326 329 331 336 334 328 328 321 321 330 337 346 356 15 359 269 224 261 317 302 187 165 156 191 214 227 244 249 244 250 265 275 280 286 298 304 308 318 295 319 323 310 342 334 322 119 119 117 125 122 109 153 211 203 160 180 198 154 87 239 190 199 249 269 250 82 56 335 339 11 160 156 154 147 154 162
350 350 350 348 347 345 342 336 331 326 323 321 322 326 327 331 333 328 328 317 317 328 331 341 354 28 7 266 220 271 308 320 191 200 182 206 231 234 233 248 249 256 269 275 288 300 317 321 316 309 293 307 310 303 314 306 314 95 129 125 139 126 119 180 189 180 190 181 175 151 131 242 220 220 245 282 72 79 51 354 9 341 292 159 147 151 168 150
351 349 347 346 345 344 341 337 331 325 321 318 318 323 324 328 330 326 324 310 309 327 331 334 349 50 29 267 303 306 272 207 189 217 231 231 233 230 220 224 234 242 257 262 274 291 301 306 309 308 282 274 274 287 296 286 273 224 177 133 141 133 143 188 173 159 173 191 180 160 180 246 265 235 230 303 86 100 101 54 9 312 317 104 144 159 169 143
354 350 347 345 343 342 340 336 331 325 319 315 316 320 321 324 325 320 316 303 299 322 326 313 282 177 283 271 263 267 210 208 213 194 208 239 240 230 204 205 222 227 241 253 263 278 278 279 281 282 264 245 251 264 271 269 256 206 187 153 143 137 164 201 179 169 166 167 189 184 175 255 274 229 185 106 101 121 143 148 206 286 346 356 178 177 160 143
357 354 350 345 342 341 339 336 331 324 317 313 313 317 319 320 318 313 309 307 299 303 320 324 240 193 293 291 175 163 181 209 238 181 175 250 269 288 209 205 232 225 229 244 248 253 259 264 242 240 267 258 251 253 260 268 271 235 189 174 142 131 153 192 191 191 158 139 188 211 183 233 254 199 151 125 123 126 134 133 148 3 17 357 316 228 156 152
357 355 352 348 343 339 338 336 331 324 316 312 313 315 317 316 310 308 311 315 305 283 271 287 281 214 267 284 161 170 195 199 230 189 206 239 257 291 271 224 221 213 214 228 235 235 239 242 215 232 254 253 257 255 277 280 263 251 192 168 150 151 155 164 181 187 159 150 188 210 195 185 191 164 147 143 138 138 134 128 135 127 87 343 306 284 166 165
356 354 353 350 345 339 336 334 331 324 315 311 314 314 314 310 301 304 313 312 324 294 266 271 301 317 256 243 221 96 63 105 153 191 227 217 215 270 271 248 225 204 204 219 225 223 222 209 194 229 233 220 248 241 227 243 251 283 154 148 158 163 154 157 174 177 175 182 184 183 203 189 160 150 158 160 147 158 157 133 131 134 129 206 291 296 190 176
355 354 352 351 347 341 335 333 330 324 316 311 314 317 314 306 294 299 300 201 258 284 281 222 184 223 257 206 189 115 61 43 174 195 222 208 180 235 247 254 255 209 214 224 202 199 197 213 217 238 249 223 219 217 219 245 255 345 19 94 146 146 142 163 177 173 171 176 183 184 194 174 161 161 167 163 157 166 151 123 122 136 136 178 272 293 219 183
355 353 351 350 347 342 334 331 328 324 319 314 321 329 325 324 330 335 162 214 233 232 258 249 199 224 291 137 150 148 119 230 226 213 204 194 204 231 233 239 230 206 229 219 189 200 188 197 227 217 231 232 220 211 237 289 307 26 2 343 68 120 138 175 172 165 167 159 194 194 179 170 174 172 167 158 162 170 148 135 141 145 143 183 239 281 258 193
352 351 350 348 346 343 335 329 325 322 317 313 323 337 313 327 3 357 340 279 265 245 246 247 209 249 337 351 320 173 153 210 234 196 148 172 229 236 218 212 209 215 238 225 192 190 182 203 241 237 238 239 226 87 358 332 359 26 2 344 343 99 153 180 159 163 176 161 194 194 166 171 179 168 166 158 168 179 159 155 163 157 155 188 228 271 286 239
350 350 347 345 345 343 335 326 322 317 309 307 314 289 263 311 1 353 343 300 292 282 254 228 190 204 162 84 305 275 181 207 216 143 127 177 225 216 211 202 206 220 229 228 160 168 188 229 240 244 287 339 24 21 352 336 7 12 346 324 312 188 144 167 164 175 185 161 189 190 153 158 171 161 165 170 175 178 160 161 169 168 167 190 220 247 281 268
348 347 345 345 342 341 334 324 318 308 298 295 286 259 276 313 4 358 339 274 287 291 269 236 214 214 159 159 203 227 249 213 165 144 142 189 223 227 244 234 240 252 225 170 166 197 221 244 232 133 38 16 17 7 342 335 336 299 261 266 263 193 152 151 189 191 192 192 179 156 118 118 139 139 158 175 172 158 155 159 162 172 184 197 217 236 266 273
346 345 345 343 340 341 335 322 312 299 298 290 275 275 287 310 0 360 335 260 271 279 268 239 238 241 109 163 191 211 258 226 140 156 152 191 250 256 262 259 271 277 231 172 182 226 245 278 12 53 36 1 354 346 310 306 285 249 223 225 232 221 182 157 182 194 186 232 176 114 88 93 150 149 166 171 155 152 156 155 162 174 183 182 211 250 259 277
345 344 343 342 340 339 333 324 309 315 320 293 273 281 297 319 355 356 336 276 265 266 217 139 261 220 126 176 194 200 261 250 103 136 154 190 282 310 281 264 254 296 323 162 203 265 251 35 44 31 23 352 318 279 246 242 264 265 247 248 260 300 312 154 171 176 146 246 235 136 118 255 189 166 163 158 149 160 163 161 177 176 169 172 200 248 253 273
344 342 342 341 339 336 336 331 314 327 323 298 307 337 352 352 353 349 344 270 270 231 154 158 173 175 160 198 211 152 6 286 110 108 146 183 289 257 279 292 236 288 333 326 266 260 234 153 110 106 25 286 279 270 240 225 227 255 307 8 11 352 354 138 162 163 148 209 225 177 153 180 203 176 164 166 162 167 171 175 192 184 175 188 201 243 257 274
343 341 340 339 339 339 336 301 314 326 309 306 344 353 354 353 344 336 346 249 271 223 165 156 151 189 186 172 212 105 41 194 132 143 200 176 180 221 251 291 282 259 286 37 347 271 260 315 120 136 175 244 257 278 274 247 201 263 346 26 15 351 346 2 116 235 244 190 189 208 174 149 189 172 161 165 167 168 176 185 199 194 189 197 204 236 254 266
341 340 338 336 338 336 321 301 314 316 284 301 330 337 341 340 332 331 0 289 285 310 190 147 126 183 184 139 189 240 201 169 172 217 199 173 183 235 236 274 293 301 328 38 330 264 309 8 30 75 317 263 273 335 353 15 9 310 352 18 8 329 320 329 353 317 315 26 8 251 216 126 52 70 130 149 181 184 186 191 195 196 192 195 206 224 245 262
339 339 336 332 334 334 327 314 300 297 309 308 310 320 327 323 320 352 259 279 176 167 172 122 124 179 207 142 202 254 222 159 193 226 191 179 181 195 248 275 290 310 312 258 239 255 225 126 75 23 320 287 358 352 7 9 336 335 340 330 275 269 278 294 297 281 332 11 269 251 232 147 90 293 132 138 221 206 193 191 188 194 192 194 207 213 229 250
336 338 334 330 331 333 329 308 290 321 340 330 312 313 314 311 318 74 252 266 160 196 158 119 141 179 206 196 203 246 232 169 193 201 190 198 186 182 220 269 283 304 285 243 244 255 218 148 115 62 290 309 352 337 312 273 265 286 300 289 264 261 258 246 234 193 68 278 247 243 241 210 159 241 203 183 212 192 182 193 189 192 192 194 207 210 219 232
333 335 332 326 321 313 305 289 289 340 349 343 334 318 307 306 223 245 267 261 218 212 175 154 147 174 205 216 210 215 210 176 168 188 200 197 187 193 222 246 248 296 292 260 247 248 214 140 131 156 194 297 291 263 253 236 232 231 251 262 304 297 297 268 242 94 104 254 241 237 247 211 121 247 227 202 197 170 171 192 194 198 200 194 199 204 215 230
332 334 329 319 308 293 268 253 287 321 334 341 336 317 304 315 216 238 256 281 261 184 242 175 151 190 231 253 239 186 179 174 163 198 236 200 190 197 204 210 184 171 286 278 251 231 198 161 158 151 157 279 262 273 289 265 247 253 275 12 63 358 342 0 346 107 189 247 259 307 45 59 30 301 180 166 86 100 142 190 191 199 210 201 198 199 205 226
331 333 326 313 301 286 270 269 285 310 336 334 320 294 299 291 245 238 237 269 238 177 243 163 151 199 326 320 288 156 115 265 202 175 274 250 245 211 190 195 145 139 223 303 316 278 157 176 171 139 137 248 270 319 351 15 343 345 25 38 76 41 342 343 332 320 295 304 308 22 66 85 263 355 96 127 78 57 46 6 224 206 214 210 207 204 201 217
332 333 328 315 301 289 278 273 257 257 323 319 302 267 254 238 241 253 254 281 276 191 174 102 154 224 218 264 280 123 136 224 215 183 249 256 277 249 174 138 44 27 284 344 345 354 1 259 191 131 148 216 208 52 60 25 341 349 55 65 108 87 356 321 340 341 330 322 315 353 62 147 197 92 61 103 94 70 48 7 339 296 232 209 204 205 207 214
332 332 327 308 295 294 278 251 229 216 288 298 287 239 233 235 246 255 259 284 316 295 110 107 297 265 209 211 231 213 154 179 193 225 250 253 273 327 51 79 56 25 12 13 341 332 350 326 299 129 167 181 74 38 11 51 11 330 28 61 114 259 320 157 338 318 305 321 320 358 37 14 113 101 42 86 139 163 92 32 346 332 314 240 202 200 204 211
332 333 327 296 280 286 265 221 201 194 236 254 252 241 229 246 258 253 282 309 324 348 38 110 194 246 227 206 198 197 162 143 176 191 249 254 253 25 62 71 56 40 34 27 328 335 9 323 312 322 149 123 88 50 330 89 122 290 25 51 255 258 58 55 334 323 349 351 315 84 83 36 104 84 336 303 166 133 108 58 23 1 341 330 273 216 205 203
333 333 318 283 271 259 226 186 174 185 218 230 218 251 250 255 263 276 312 317 332 43 359 351 224 263 270 260 183 172 165 183 183 172 220 227 252 355 86 91 57 41 38 75 316 342 43 313 299 306 82 92 116 146 16 86 159 149 104 221 275 13 59 63 336 346 16 348 308 74 99 120 325 6 312 316 19 39 53 36 18 7 349 338 326 311 264 215
328 321 295 284 275 232 193 166 173 186 200 229 240 265 269 268 279 291 301 308 329 21 311 287 284 281 280 298 167 167 163 162 187 196 187 116 343 325 39 78 98 87 351 164 122 317 356 315 295 319 80 119 157 132 81 285 181 137 153 199 141 61 51 33 46 10 1 328 325 80 110 76 355 8 334 342 356 355 355 359 351 351 346 322 320 327 318 302
320 305 284 283 231 179 172 166 177 193 192 220 243 258 260 265 269 267 265 271 302 331 302 276 262 235 251 281 160 172 150 131 198 208 56 100 246 276 344 83 126 98 338 229 121 297 296 297 289 327 2 339 10 57 73 267 264 50 33 41 97 106 74 39 122 170 46 348 325 39 100 33 318 243 328 342 352 339 333 344 343 336 329 291 294 305 300 302
314 277 284 252 162 157 163 167 179 203 210 228 246 251 263 271 268 266 259 248 252 308 249 284 300 297 295 314 339 266 345 352 273 90 75 178 168 249 330 340 108 62 356 355 69 334 348 44 317 321 333 348 51 25 65 76 4 19 44 36 46 64 59 35 4 153 123 138 267 328 34 270 246 185 167 358 14 323 316 338 340 336 345 312 292 282 279 288
293 282 283 154 144 153 159 166 206 206 209 246 250 251 264 269 273 282 276 242 143 302 261 275 292 313 315 321 329 276 270 325 285 198 222 205 137 93 338 15 70 53 5 356 21 7 9 14 337 322 321 347 29 331 344 92 71 50 90 84 65 83 87 65 340 320 99 143 243 304 260 251 241 156 158 189 182 221 271 322 320 330 353 338 320 310 294 287
252 287 291 147 146 161 165 175 230 206 210 246 244 249 264 265 268 281 287 179 128 210 271 277 274 279 287 307 323 318 13 358 297 277 20 77 107 117 73 51 44 43 34 23 27 14 342 308 321 311 295 314 325 308 314 100 106 89 92 121 135 112 101 116 218 290 20 321 301 270 246 260 234 142 147 199 209 189 224 312 293 309 337 350 347 330 316 309
277 300 294 280 174 169 196 246 233 229 222 241 250 254 261 265 264 271 282 278 165 172 248 270 275 279 284 321 315 317 58 23 282 297 47 62 77 94 97 87 55 348 29 42 27 352 331 358 353 316 299 319 311 303 345 23 61 98 113 176 157 137 135 152 173 138 110 284 309 23 311 284 218 130 132 218 231 138 61 324 299 307 312 336 33 348 317 316
318 279 288 285 208 181 235 256 239 261 240 239 248 249 254 259 259 259 263 261 237 180 210 242 249 243 242 279 290 289 70 115 253 292 49 76 87 130 124 123 140 93 81 125 138 0 330 12 33 357 334 345 340 339 358 358 357 95 149 275 177 147 126 103 83 74 79 301 340 36 245 253 209 168 172 203 223 77 62 308 293 301 316 334 356 28 1 324
302 239 256 277 237 209 238 253 258 273 263 259 254 253 258 256 252 253 259 276 272 247 227 242 245 244 244 245 256 286 323 114 188 333 39 104 174 198 160 141 136 101 112 150 135 84 122 123 60 38 342 334 328 311 307 317 320 298 323 1 0 99 108 100 87 82 115 331 355 10 200 170 169 187 177 158 102 72 64 299 297 309 327 330 335 352 22 55
317 284 261 273 236 210 227 252 264 267 274 282 278 278 280 277 266 239 212 236 268 258 248 247 241 246 250 250 246 263 274 225 161 334 16 107 250 161 132 132 126 109 112 118 62 55 102 114 152 204 235 239 237 255 268 269 274 268 271 46 17 16 93 117 128 157 176 152 12 27 127 102 151 183 121 95 49 20 8 334 322 328 334 328 333 358 5 40
305 287 299 339 310 235 227 237 250 249 252 262 269 281 280 281 288 254 186 190 235 243 246 244 237 232 223 231 232 211 222 239 243 278 247 171 260 164 148 157 140 119 120 137 134 111 83 105 210 216 225 239 242 255 276 276 269 277 352 69 29 338 359 69 209 181 140 92 9 221 145 114 166 167 84 70 21 12 354 331 332 342 334 326 344 19 19 21
277 282 330 357 343 305 312 288 283 276 258 251 247 258 267 273 283 278 199 183 204 213 226 244 250 257 255 259 260 185 177 213 236 263 247 197 235 192 158 153 135 137 151 178 154 130 118 217 238 253 264 277 284 292 302 302 296 311 339 79 108 333 332 317 298 145 113 115 219 208 108 109 157 115 80 71 47 37 338 322 337 347 342 337 353 14 24 26
305 301 337 353 336 311 313 304 306 308 290 279 267 247 257 266 272 277 273 235 213 190 185 240 261 265 266 270 293 0 128 197 214 251 255 270 323 327 108 94 124 161 182 182 148 135 129 192 231 320 317 306 303 301 308 314 306 304 299 241 87 321 292 326 342 94 115 129 171 101 85 90 80 65 82 69 62 80 296 317 351 354 350 356 7 12 23 29
335 336 336 338 322 311 310 307 312 315 304 301 296 270 265 262 262 272 278 267 240 190 192 218 235 249 261 261 258 270 279 273 256 262 249 233 295 303 187 138 150 204 221 180 124 128 130 180 185 138 292 281 276 274 275 267 259 276 302 24 30 358 329 356 5 41 80 72 62 66 81 89 73 83 93 79 82 92 3 356 16 7 349 352 17 22 20 27
343 342 339 321 305 317 317 311 310 307 303 299 287 284 285 279 280 288 286 288 294 281 257 239 224 227 258 266 243 231 245 243 231 234 218 196 202 191 159 183 181 198 214 156 115 131 150 204 172 112 247 257 273 290 296 290 288 316 355 44 43 17 23 32 351 359 55 81 75 62 89 113 123 121 95 58 73 62 32 9 7 6 1 2 21 24 7 13
346 342 341 320 290 305 306 302 299 289 286 287 283 277 272 279 294 296 291 300 295 291 311 309 275 213 211 254 257 250 251 238 215 228 233 204 185 179 199 213 199 195 232 78 109 139 141 36 36 62 261 266 314 323 329 339 340 326 325 40 47 34 54 29 351 30 51 53 86 90 119 134 138 140 118 61 62 54 31 20 8 359 7 7 14 27 9 356
Height
802 801 800 799 797 796 795 794 792 791 790 788 787 785 784 783 781 779 778 777 777 775 775 775 773 773 773 772 771 770 769 768 768 769 768 764 762 763 763 763 762 763 764 764 765 765 764 763 762 760 761 762 766 773 779 778 779 787 798 806 810 812 807 801 802 801 800 800 797 795 790 790 788 780 771 768 770 770 769 768 765 765 767 770 774 778 781 784
802 801 800 799 798 796 795 793 792 790 789 788 786 785 783 782 780 778 777 776 776 775 774 774 773 773 772 772 771 770 769 767 768 768 764 761 761 762 762 762 762 762 762 763 763 763 764 762 758 757 760 764 765 771 780 778 779 789 797 803 806 805 800 794 795 794 795 796 794 792 791 789 786 780 774 779 782 775 776 775 770 774 774 773 775 779 782 783
802 801 800 799 797 796 795 793 792 790 789 787 786 784 783 781 779 778 777 775 774 774 774 773 773 772 772 772 771 770 769 768 769 766 761 760 761 760 760 761 760 761 761 762 763 762 763 760 756 756 760 765 763 770 781 779 780 785 789 800 799 794 794 791 791 790 789 789 792 794 790 787 783 778 778 784 786 780 783 782 780 784 782 780 778 779 782 783
802 801 800 798 797 796 794 793 791 790 788 787 785 784 782 780 779 777 776 775 774 774 773 773 773 772 773 771 771 771 769 771 769 762 759 759 759 759 759 759 759 760 761 761 762 762 760 758 756 755 762 767 763 768 779 776 778 779 782 793 790 787 793 791 788 787 785 785 790 792 789 788 782 778 781 786 790 789 784 779 779 784 782 781 780 779 782 784
802 801 799 798 797 795 794 793 791 789 788 786 785 783 781 780 778 777 775 774 773 773 773 773 772 772 772 771 772 770 771 780 770 757 759 758 757 758 757 758 759 760 760 761 762 760 760 757 756 758 764 768 766 768 771 765 768 777 778 780 781 786 792 788 785 786 785 785 789 791 792 790 783 782 783 786 794 792 781 775 773 776 778 779 780 780 782 784
802 801 799 798 796 795 793 792 791 789 788 786 785 783 781 780 778 776 775 774 773 773 772 772 772 772 772 771 772 770 775 782 765 755 760 757 757 757 756 758 758 759 759 761 761 759 760 757 759 765 766 767 767 766 762 755 762 779 781 775 778 783 787 786 784 786 785 787 792 793 791 787 788 789 783 784 789 783 774 770 768 771 773 776 779 780 782 784
802 800 799 797 796 795 793 792 790 789 787 786 784 782 781 779 777 777 774 773 773 772 772 772 772 772 771 771 772 771 775 773 758 756 759 755 758 756 756 758 757 760 759 760 760 760 759 758 762 764 765 767 764 759 754 751 757 775 782 776 777 779 784 786 784 786 786 789 792 790 789 789 794 794 786 784 782 776 772 767 767 769 771 775 778 780 782 783
801 800 798 797 795 794 792 791 789 788 787 785 784 782 781 779 778 776 774 774 772 772 772 772 772 771 771 771 771 773 772 765 756 757 757 756 757 755 757 757 757 759 758 759 758 757 757 759 761 758 766 766 757 754 749 751 760 769 777 775 775 780 783 783 783 786 786 788 789 789 792 791 791 791 789 786 778 774 772 769 768 770 771 775 778 779 780 782
801 800 798 797 795 793 792 790 789 788 786 784 783 781 780 779 777 776 775 773 772 772 772 771 772 771 772 770 771 776 768 757 755 757 756 757 756 756 757 756 758 758 757 758 754 754 757 759 758 754 763 761 752 753 747 757 769 764 769 773 778 784 783 781 781 784 787 786 787 792 796 792 787 789 791 784 776 774 771 771 770 771 774 776 777 778 779 781
801 799 798 796 794 793 791 790 788 787 785 784 782 781 780 778 777 776 774 773 772 772 771 772 772 770 772 770 774 779 763 752 755 755 756 757 756 757 757 756 757 756 756 755 752 752 753 755 753 747 754 756 754 754 749 758 763 755 763 772 779 785 783 783 782 784 787 786 787 793 798 793 786 792 795 782 773 774 774 774 771 771 775 775 776 776 777 779
801 799 798 795 794 793 790 789 787 786 785 783 781 780 779 777 776 775 774 774 772 772 772 771 771 771 772 771 777 775 757 752 755 753 755 756 756 756 755 755 755 755 754 752 751 750 749 750 746 747 756 757 756 755 750 750 750 752 762 774 784 786 787 787 784 786 789 788 787 789 794 794 790 795 795 780 772 774 777 779 774 773 774 774 776 776 777 778
801 799 797 795 794 791 790 789 786 785 784 782 781 779 778 777 775 774 774 773 772 772 772 771 772 771 770 772 774 766 753 752 754 752 755 754 756 755 753 754 753 753 753 751 750 747 748 747 745 755 759 756 761 763 754 743 745 752 760 781 792 789 797 797 787 787 790 789 784 786 799 800 796 795 787 777 773 774 779 781 778 776 774 774 775 776 777 778
800 798 797 795 793 791 790 787 786 785 782 781 780 778 777 776 774 774 773 773 772 772 771 771 772 770 773 772 763 755 752 753 753 753 754 753 754 753 752 753 752 753 752 751 750 747 749 747 747 754 753 756 765 759 750 742 746 755 759 779 794 796 805 800 789 789 789 788 781 789 808 805 796 791 782 776 775 777 782 782 781 782 777 775 775 777 778 778
800 798 796 794 792 791 789 787 785 783 781 780 778 777 776 774 774 773 772 772 772 771 771 771 772 771 774 769 756 752 753 752 753 753 753 753 751 751 751 751 751 751 751 750 750 749 749 747 747 751 750 755 758 751 752 752 752 758 764 776 789 802 808 793 785 789 791 788 781 792 810 803 794 789 781 777 776 779 785 784 783 785 781 777 776 778 779 778
800 798 796 794 792 790 788 786 784 782 781 779 777 776 774 773 773 771 771 771 771 772 770 770 771 771 774 767 753 752 753 752 752 751 751 751 749 749 749 749 749 749 749 749 749 749 748 747 751 758 756 750 752 759 766 764 758 759 773 786 787 796 804 792 782 784 790 790 783 794 808 802 794 787 781 778 778 780 785 786 785 785 783 781 779 778 779 779
799 797 795 793 791 789 787 785 783 782 779 777 776 775 773 772 770 769 770 769 770 771 770 772 770 771 777 767 753 752 752 751 750 749 750 750 749 748 747 747 747 747 748 747 748 748 747 749 752 756 757 755 760 768 772 773 770 763 772 789 788 791 802 798 785 778 782 790 789 793 802 803 794 784 780 779 780 782 785 786 786 786 784 783 783 779 779 780
799 797 795 793 790 789 787 784 783 780 778 777 775 772 771 770 767 767 768 768 770 769 769 771 768 771 772 760 755 755 750 748 749 749 749 748 748 747 746 746 746 745 746 745 747 747 747 751 754 756 758 762 763 767 781 790 785 772 768 779 784 786 797 800 793 781 779 788 792 792 796 797 790 782 782 781 781 784 786 788 787 787 786 784 785 782 780 781
799 796 794 792 790 788 786 784 782 779 777 775 773 772 769 768 766 766 767 767 768 768 771 770 769 780 776 759 757 754 746 747 747 747 748 747 747 747 745 745 744 744 748 750 750 749 752 752 756 764 765 766 766 770 787 790 779 774 770 776 782 781 789 796 792 783 780 786 790 794 796 791 786 783 783 781 781 785 786 787 788 787 787 786 785 784 781 781
798 796 794 791 789 787 785 783 781 779 776 774 773 770 766 764 763 764 765 767 769 772 775 769 769 778 772 755 749 746 744 746 747 746 746 745 745 745 744 744 743 746 756 761 758 753 755 759 764 773 775 771 768 767 774 770 762 765 764 768 775 779 786 787 782 775 775 787 790 792 795 790 787 786 784 782 781 785 786 786 788 788 787 787 787 785 782 781
798 796 793 791 788 786 784 782 781 779 776 774 772 769 768 768 770 771 767 766 766 764 764 760 758 759 755 747 743 743 745 746 746 744 743 744 744 745 744 744 746 752 759 764 764 753 753 769 776 774 772 765 759 756 756 754 752 756 760 764 766 776 785 778 774 771 770 785 792 786 788 789 787 785 782 782 782 785 787 788 789 788 788 788 787 786 783 781
797 795 792 790 788 785 784 782 780 778 776 775 773 774 775 774 779 779 771 765 757 751 753 749 746 749 747 743 741 740 745 748 745 741 742 742 742 749 750 747 756 763 759 756 758 751 754 775 775 762 756 750 748 748 748 751 752 756 763 768 768 775 781 774 771 770 767 781 788 780 785 789 785 784 782 781 785 787 787 789 790 788 789 788 787 787 785 781
797 795 792 790 787 785 782 780 780 778 776 775 774 775 773 769 772 770 768 772 759 744 746 742 741 745 740 739 740 737 745 752 749 743 741 741 744 754 753 750 762 765 754 751 758 762 768 774 764 750 744 742 744 746 748 752 755 760 764 770 774 774 777 776 771 767 767 779 785 778 784 790 784 782 783 782 784 785 783 785 787 787 788 788 787 787 786 783
797 794 792 789 786 784 781 779 779 776 775 774 773 772 769 766 765 763 766 776 767 748 743 743 744 745 741 741 738 738 748 753 754 748 739 742 748 750 752 754 759 758 753 755 762 773 778 768 751 742 741 745 750 750 752 757 758 763 766 771 775 770 776 786 778 769 768 772 777 778 785 791 787 784 784 782 782 782 781 782 783 784 786 786 785 785 785 784
796 793 792 788 785 784 780 778 777 776 775 773 772 769 766 766 765 765 767 773 772 754 741 739 738 741 742 740 736 741 749 745 748 747 737 742 748 746 750 751 754 757 754 752 756 765 769 753 739 740 744 749 755 756 757 763 765 763 761 765 768 762 765 776 774 769 770 771 769 778 796 801 793 792 791 783 782 783 782 782 783 783 783 783 784 783 782 783
795 793 791 787 786 782 779 778 774 775 774 771 770 766 765 766 763 764 769 778 778 757 741 738 738 739 737 736 737 738 743 742 741 740 733 737 744 748 750 744 749 761 755 749 754 761 759 744 737 746 751 751 758 760 757 762 768 766 757 754 755 754 755 763 768 771 784 789 772 773 805 813 796 793 796 789 787 787 784 785 786 785 784 784 785 784 781 781
795 793 790 788 785 780 779 776 773 775 774 770 768 765 766 766 764 764 772 789 789 764 750 748 745 744 738 738 736 734 750 753 736 732 733 735 736 743 753 747 745 755 751 746 752 755 750 740 739 749 753 754 759 761 754 753 767 771 757 745 747 750 754 761 767 774 788 791 771 765 793 811 803 796 794 790 791 790 787 787 787 785 785 784 785 784 781 781
795 792 789 788 784 782 780 776 776 775 774 771 767 766 767 765 765 764 778 807 798 763 753 751 746 745 740 738 733 743 768 759 737 734 732 734 734 735 754 756 750 750 741 745 762 758 746 743 745 748 753 758 762 763 752 746 764 770 750 744 750 752 756 759 762 770 772 770 769 768 774 795 808 801 789 788 792 792 789 789 788 785 785 784 783 783 781 780
794 791 789 787 785 784 781 778 778 774 774 773 767 769 768 765 767 767 794 827 797 752 749 748 740 738 735 734 734 745 756 748 751 750 727 730 736 737 754 756 751 751 737 750 776 761 744 750 752 751 756 761 761 757 748 745 760 759 743 745 750 751 756 755 758 767 763 768 785 780 769 791 813 803 790 792 795 795 792 789 787 785 783 783 782 782 780 778
793 790 788 786 785 783 781 780 778 774 773 771 769 772 767 766 769 774 807 824 780 746 747 744 741 741 737 739 741 742 740 741 755 748 726 731 734 736 753 749 745 750 741 748 766 756 743 745 744 748 758 760 754 748 743 747 757 749 741 746 747 749 753 753 761 766 767 781 792 780 768 792 819 811 799 801 800 796 792 786 785 783 781 782 781 780 779 777
791 789 787 784 783 782 781 779 775 774 772 770 772 770 767 771 777 798 826 810 767 750 745 743 748 746 744 751 752 746 743 745 744 737 734 737 734 735 742 737 739 749 748 747 752 747 739 733 734 744 751 749 746 744 740 744 747 743 745 750 752 754 753 756 761 761 779 794 784 771 762 775 812 817 801 799 795 788 788 786 783 781 779 780 779 778 778 777
789 787 785 782 782 782 781 778 773 773 772 772 772 768 772 779 787 818 824 780 757 758 747 746 750 744 747 755 756 750 747 746 741 742 747 744 743 745 745 747 750 756 761 758 754 746 740 741 741 740 740 739 744 746 741 737 738 743 752 757 765 768 762 767 768 769 796 804 777 763 756 767 807 815 795 789 782 777 782 784 783 781 778 777 776 776 775 774
786 785 783 780 779 779 779 776 772 773 772 772 772 770 781 796 803 814 798 763 765 767 751 751 750 745 748 749 751 750 748 749 743 744 750 749 753 753 753 760 760 769 778 769 759 752 747 746 741 739 736 735 747 755 750 744 743 750 757 764 780 789 788 793 792 789 799 793 768 758 762 787 812 803 788 786 779 775 777 776 778 778 777 775 774 774 773 772
784 781 779 777 776 775 774 773 771 773 773 771 774 775 789 814 815 797 778 768 769 756 744 748 746 744 750 753 753 747 748 752 745 745 747 746 752 751 749 748 747 764 777 767 763 763 761 751 739 743 745 737 744 759 766 762 755 759 764 772 791 804 813 818 809 801 800 787 766 753 769 807 817 794 785 785 779 776 774 772 775 774 774 774 772 771 771 771
782 779 777 774 773 772 770 772 771 772 773 772 778 786 801 819 805 779 771 766 754 742 741 745 745 747 751 756 754 744 750 755 743 746 751 748 755 756 751 746 743 752 762 766 770 770 778 773 751 747 750 742 742 749 756 758 758 760 757 766 785 795 809 819 814 812 811 796 775 762 779 810 814 796 786 781 777 776 775 774 773 771 770 770 769 770 771 770
780 777 776 772 770 769 768 770 770 772 774 775 783 797 809 810 790 775 771 757 746 745 743 741 746 755 756 753 749 741 748 756 745 747 754 753 758 758 754 753 749 750 761 775 775 766 777 778 749 737 737 738 744 742 738 751 766 763 753 767 783 779 784 798 801 798 798 798 789 784 797 801 794 790 781 777 779 776 777 777 774 774 770 767 769 769 769 769
778 774 773 770 768 767 767 769 770 771 773 778 793 803 800 791 777 769 760 748 746 748 749 751 753 761 764 756 752 746 744 750 749 752 755 753 753 753 753 753 748 750 760 773 776 771 781 777 747 735 736 733 740 741 735 750 769 765 764 778 776 761 767 790 799 786 789 807 799 794 811 804 792 796 787 780 782 778 779 779 776 778 774 771 771 769 767 767
776 773 771 767 765 766 766 767 769 771 772 782 798 799 786 774 764 758 751 744 743 741 752 767 761 760 766 760 756 752 748 750 750 755 759 756 754 752 750 751 747 748 752 761 769 768 776 779 753 740 748 738 728 735 737 739 750 764 776 775 761 758 768 786 804 803 808 822 805 796 820 820 812 814 799 787 787 783 782 782 780 781 778 776 775 770 768 765
777 774 769 763 761 763 764 766 768 770 774 785 797 791 778 770 759 753 750 745 742 742 755 769 763 756 760 763 759 751 751 758 755 755 760 761 761 754 750 753 749 746 745 750 764 761 764 782 765 741 749 744 726 739 754 744 738 752 762 756 760 784 793 792 807 818 824 830 817 808 820 824 823 823 812 804 801 794 788 784 784 784 781 781 778 773 770 766
779 777 770 759 757 761 763 766 766 769 779 791 796 787 775 767 757 748 746 742 743 749 758 762 757 754 754 756 757 751 751 758 756 757 762 765 765 753 746 751 751 748 744 745 760 760 757 779 780 750 743 746 740 751 770 765 749 746 751 754 762 782 794 795 800 809 821 833 830 820 824 830 827 820 817 816 811 808 803 793 788 787 784 782 778 774 772 768
779 781 772 755 756 762 762 765 768 775 785 788 788 781 770 763 754 741 737 737 741 748 756 757 755 757 755 750 750 750 750 752 752 757 760 759 761 757 747 746 749 751 746 744 755 759 758 775 787 767 748 753 762 762 765 769 764 761 768 775 776 777 784 791 793 794 808 827 831 827 833 834 817 806 811 811 808 811 809 801 795 789 786 784 780 776 773 769
781 784 772 754 757 761 762 770 775 778 784 783 779 775 767 760 753 743 734 732 737 741 745 750 753 756 757 754 752 749 749 751 751 754 757 753 758 763 752 742 746 752 752 755 761 765 769 776 784 780 768 768 770 755 748 755 759 763 773 779 782 782 788 804 811 799 796 810 817 820 833 827 804 798 804 802 799 800 799 797 794 788 786 786 783 780 775 769
785 785 770 757 760 760 764 776 777 774 780 779 773 768 761 755 751 746 737 733 738 740 739 745 749 751 753 753 752 749 749 754 754 753 756 753 753 759 750 741 744 749 754 765 767 763 766 772 780 782 775 770 762 746 742 747 747 755 767 770 774 779 787 808 821 809 799 804 801 805 821 818 798 795 799 797 796 793 792 792 790 786 784 783 782 782 779 773
787 783 766 758 760 759 768 781 777 773 775 770 763 759 755 752 751 746 740 738 741 743 745 747 747 749 750 748 749 750 751 755 755 751 754 756 753 750 745 743 746 749 756 769 770 762 765 775 786 787 775 763 755 745 743 744 747 761 768 763 768 776 780 790 798 798 804 808 803 810 824 817 798 794 797 797 794 791 791 790 788 787 784 781 781 780 781 780
788 782 767 759 759 759 771 783 780 777 772 764 762 759 752 748 747 745 743 742 741 743 749 749 746 747 748 745 747 749 750 757 758 750 751 759 756 746 742 743 747 752 759 767 767 766 774 782 789 798 799 790 781 773 767 761 760 768 769 763 764 768 773 780 784 791 805 805 801 815 827 816 799 793 795 795 793 793 792 789 787 785 783 783 781 778 778 779
789 782 769 759 756 760 769 772 772 775 771 765 764 760 754 748 741 737 740 740 738 739 746 747 742 742 743 744 747 747 746 754 759 753 752 757 753 744 741 743 746 751 756 757 756 760 775 783 787 803 818 820 815 805 792 779 771 769 767 764 764 765 773 784 790 801 813 806 798 810 819 811 800 795 795 794 793 794 793 789 786 784 784 783 780 778 777 775
792 787 777 765 757 759 764 762 763 770 769 768 768 761 758 754 740 730 733 739 738 736 741 743 739 742 745 746 752 754 749 748 753 755 755 756 753 746 742 742 745 750 753 753 752 758 772 780 782 792 802 805 805 796 780 774 775 774 769 767 768 769 772 781 793 803 806 802 804 807 805 806 806 800 796 795 794 795 794 790 787 785 786 784 779 779 777 774
795 790 781 776 770 766 766 762 762 766 764 766 769 764 759 755 745 735 732 736 737 736 740 741 739 745 750 750 754 757 753 750 751 754 755 754 751 746 742 741 745 749 751 752 753 760 776 784 780 782 785 783 782 777 769 768 772 771 768 768 770 770 770 778 790 792 790 800 812 804 794 804 809 801 797 798 796 797 796 792 789 787 787 786 781 779 778 775
793 786 777 777 780 778 776 771 765 762 759 759 761 760 758 755 751 746 739 735 733 735 743 747 743 743 745 747 752 754 754 757 758 755 754 753 751 750 747 745 746 747 749 752 752 758 776 785 777 776 779 775 771 769 765 765 766 765 766 768 769 771 773 777 781 780 782 797 805 794 792 804 806 798 798 798 795 797 797 793 790 788 787 787 784 782 781 779
790 786 779 777 781 781 779 773 766 763 760 758 758 757 757 756 753 747 740 740 740 737 742 753 750 743 741 741 747 754 756 761 764 759 754 753 753 754 756 757 754 748 747 753 752 754 770 781 775 774 780 776 771 769 765 765 767 766 765 765 765 768 771 774 777 777 778 786 788 786 795 805 802 798 798 795 794 795 794 792 790 789 789 788 786 786 785 783
793 793 788 785 784 779 775 771 768 768 763 760 761 757 752 753 753 745 737 741 748 744 741 749 749 743 741 740 745 753 751 751 757 756 751 754 756 755 757 760 758 753 750 754 756 756 767 777 770 770 781 781 772 768 765 765 767 768 766 765 765 769 771 774 776 776 777 784 784 784 797 807 802 796 796 795 793 793 793 793 792 791 791 790 788 788 787 785
795 794 792 792 790 781 777 773 770 772 770 765 763 757 753 752 749 745 740 735 740 744 741 742 743 740 740 741 744 747 742 738 744 743 741 747 750 749 750 749 750 755 754 754 759 761 767 774 768 771 788 788 773 770 769 763 764 770 772 770 771 774 776 775 775 774 777 784 786 788 801 809 802 795 796 796 794 794 796 796 795 794 793 792 791 791 790 786
796 793 790 793 793 784 779 776 771 774 773 765 759 754 752 751 744 745 750 740 733 736 737 736 738 739 743 746 744 739 733 730 731 730 729 733 735 736 741 740 740 747 752 754 759 761 765 773 773 779 793 790 774 771 771 769 780 788 780 772 771 773 775 774 774 775 776 780 788 797 802 801 797 795 798 798 797 798 798 797 797 796 794 794 794 793 792 789